Temp
-4 -4 -5 -5 -6 -5 -6 -6 -5 -5 -6 -6 -5 -5 -5 -5 -5 -5 -5 -5 -5 -4 -5 -4 -5 -5 -5 -5 -5 -6 -6 -5 -5 -6 -5 -5 -5 -6 -6 -6 -6 -6 -6 -6
-5 -4 -4 -5 -6 -5 -6 -6 -6 -6 -6 -6 -6 -6 -5 -5 -4 -4 -4 -5 -5 -5 -5 -4 -4 -5 -5 -5 -5 -5 -6 -6 -6 -5 -6 -6 -6 -6 -6 -6 -6 -6 -6 -6
-5 -6 -4 -3 -5 -6 -6 -6 -7 -6 -7 -7 -7 -7 -7 -6 -5 -5 -5 -5 -5 -5 -5 -5 -5 -5 -5 -5 -5 -5 -5 -6 -6 -6 -6 -6 -6 -6 -6 -6 -6 -6 -6 -6
-6 -6 -5 -5 -5 -6 -6 -5 -6 -7 -7 -6 -6 -7 -7 -7 -6 -5 -5 -5 -6 -6 -6 -6 -5 -5 -5 -5 -6 -6 -6 -6 -6 -6 -6 -6 -6 -5 -5 -5 -6 -6 -6 -6
-6 -5 -5 -5 -5 -6 -6 -6 -5 -5 -6 -5 -5 -5 -6 -6 -6 -6 -6 -6 -5 -6 -6 -6 -6 -6 -6 -5 -6 -6 -6 -6 -7 -7 -6 -6 -6 -5 -5 -5 -6 -5 -5 -5
-5 -5 -5 -5 -5 -6 -6 -6 -6 -5 -5 -5 -5 -4 -4 -4 -4 -5 -5 -6 -5 -6 -6 -6 -6 -8 -7 -7 -6 -6 -6 -6 -6 -7 -7 -7 -6 -6 -6 -6 -5 -5 -5 -5
-6 -6 -6 -6 -6 -6 -6 -6 -6 -6 -5 -5 -5 -4 -4 -4 -4 -4 -5 -5 -6 -6 -6 -7 -6 -7 -7 -7 -8 -7 -7 -6 -6 -6 -7 -7 -7 -7 -7 -7 -7 -6 -6 -6
-7 -7 -7 -7 -7 -7 -7 -6 -6 -6 -6 -5 -5 -4 -4 -5 -5 -5 -5 -6 -6 -6 -7 -8 -8 -7 -6 -7 -8 -7 -7 -7 -7 -7 -6 -7 -7 -7 -7 -7 -7 -7 -8 -7
-7 -7 -8 -8 -8 -7 -7 -7 -7 -6 -6 -6 -5 -4 -5 -5 -5 -6 -6 -6 -6 -6 -7 -7 -7 -8 -7 -7 -7 -7 -7 -7 -7 -7 -8 -8 -7 -7 -7 -7 -7 -7 -7 -7
-8 -8 -9 -9 -8 -8 -7 -7 -7 -7 -7 -6 -5 -5 -4 -5 -5 -6 -6 -6 -6 -7 -7 -7 -7 -8 -8 -8 -8 -8 -8 -8 -8 -8 -8 -8 -8 -8 -8 -8 -7 -8 -7 -7
-9 -9 -9 -9 -9 -9 -9 -8 -8 -8 -8 -7 -7 -6 -6 -6 -6 -6 -6 -6 -6 -7 -7 -8 -8 -9 -9 -9 -9 -9 -9 -8 -8 -9 -9 -9 -9 -9 -8 -8 -8 -8 -8 -8
-10 -10 -11 -11 -10 -10 -10 -9 -9 -9 -9 -9 -8 -8 -7 -8 -7 -7 -7 -7 -7 -7 -7 -8 -8 -8 -8 -9 -9 -9 -9 -8 -8 -8 -9 -9 -9 -9 -9 -8 -8 -8 -8 -8
-11 -12 -12 -11 -11 -10 -9 -10 -10 -9 -10 -9 -9 -9 -8 -8 -8 -8 -8 -8 -8 -8 -8 -8 -9 -9 -9 -10 -10 -10 -9 -9 -9 -9 -9 -9 -9 -8 -8 -8 -8 -7 -8 -8
-12 -12 -12 -11 -11 -11 -10 -10 -10 -10 -10 -10 -10 -10 -9 -9 -9 -9 -9 -9 -9 -9 -9 -9 -9 -10 -10 -10 -11 -11 -11 -10 -10 -10 -10 -10 -10 -9 -8 -8 -8 -7 -7 -8
-12 -12 -12 -12 -12 -11 -10 -10 -10 -10 -10 -10 -10 -10 -10 -10 -10 -10 -10 -10 -10 -10 -10 -10 -10 -11 -11 -11 -11 -11 -11 -11 -11 -11 -11 -11 -11 -10 -10 -9 -9 -8 -8 -8
-12 -12 -12 -11 -11 -11 -11 -10 -10 -10 -10 -10 -10 -11 -11 -11 -11 -11 -11 -11 -11 -11 -11 -11 -11 -11 -11 -11 -11 -10 -10 -10 -10 -10 -10 -10 -10 -10 -10 -10 -10 -9 -9 -9
-12 -12 -12 -11 -11 -11 -10 -10 -10 -10 -10 -10 -11 -12 -12 -12 -12 -12 -12 -12 -12 -12 -12 -12 -12 -12 -12 -12 -12 -11 -11 -11 -11 -10 -10 -10 -10 -10 -10 -10 -10 -10 -10 -10
-12 -12 -12 -12 -11 -11 -11 -11 -11 -11 -12 -12 -13 -13 -13 -14 -14 -14 -14 -14 -14 -14 -13 -13 -13 -13 -13 -13 -13 -12 -12 -12 -11 -11 -11 -11 -10 -10 -9 -9 -9 -9 -9 -8
-12 -12 -12 -12 -12 -12 -12 -12 -12 -12 -12 -13 -13 -13 -13 -14 -14 -14 -14 -14 -14 -14 -14 -14 -13 -13 -13 -13 -13 -12 -12 -12 -12 -12 -11 -11 -10 -10 -9 -9 -9 -9 -9 -9
-12 -13 -13 -12 -12 -12 -12 -13 -13 -13 -13 -13 -13 -13 -14 -14 -14 -15 -15 -15 -14 -14 -14 -13 -13 -13 -13 -12 -12 -12 -11 -11 -11 -11 -11 -11 -11 -11 -11 -10 -10 -10 -10 -9
-13 -13 -13 -12 -12 -12 -13 -14 -13 -13 -13 -13 -13 -14 -14 -14 -14 -14 -15 -15 -15 -15 -15 -14 -14 -14 -14 -13 -13 -13 -12 -12 -12 -11 -11 -11 -11 -11 -12 -11 -11 -10 -10 -10
-13 -13 -13 -13 -13 -14 -14 -14 -14 -14 -14 -13 -14 -14 -15 -15 -15 -15 -15 -15 -15 -15 -15 -15 -15 -15 -15 -14 -14 -13 -13 -13 -13 -12 -12 -12 -12 -13 -12 -12 -11 -11 -11 -11
-14 -14 -14 -14 -14 -14 -14 -14 -14 -14 -14 -14 -14 -15 -15 -15 -15 -15 -16 -16 -16 -15 -15 -15 -15 -16 -16 -15 -15 -15 -15 -15 -14 -14 -13 -13 -13 -13 -12 -12 -12 -12 -13 -12
-14 -14 -14 -14 -14 -14 -14 -14 -14 -15 -15 -15 -16 -16 -16 -16 -16 -16 -16 -16 -16 -16 -16 -16 -17 -17 -17 -16 -14 -14 -14 -13 -13 -13 -13 -13 -13 -12 -13 -13 -13 -13 -13 -12
-14 -14 -14 -14 -14 -15 -15 -15 -15 -15 -16 -16 -16 -16 -16 -16 -16 -17 -17 -17 -17 -17 -17 -18 -18 -18 -17 -15 -14 -15 -15 -14 -14 -13 -13 -14 -13 -13 -14 -15 -15 -15 -14 -13
-14 -14 -14 -14 -15 -15 -15 -15 -15 -16 -16 -16 -16 -16 -17 -16 -17 -17 -18 -18 -18 -18 -18 -17 -18 -18 -17 -16 -15 -15 -15 -14 -14 -14 -13 -13 -13 -14 -15 -15 -16 -16 -15 -15
Height
5904 5907 5908 5910 5911 5914 5915 5916 5918 5918 5920 5920 5922 5924 5926 5927 5927 5927 5927 5925 5925 5925 5926 5927 5929 5928 5928 5931 5931 5933 5935 5935 5937 5939 5941 5942 5943 5944 5946 5948 5949 5950 5950 5950
5902 5903 5906 5909 5910 5913 5915 5916 5919 5919 5919 5920 5921 5924 5926 5926 5928 5929 5929 5929 5928 5927 5927 5928 5929 5930 5930 5931 5931 5932 5934 5936 5936 5938 5940 5941 5943 5943 5944 5945 5947 5949 5950 5950
5900 5901 5902 5907 5909 5911 5914 5914 5916 5917 5919 5920 5921 5923 5924 5926 5928 5928 5929 5930 5929 5929 5930 5930 5930 5930 5930 5931 5930 5932 5932 5933 5934 5935 5936 5938 5939 5941 5941 5942 5943 5946 5948 5950
5898 5898 5900 5902 5905 5907 5908 5911 5912 5913 5916 5918 5919 5921 5920 5922 5924 5926 5926 5927 5928 5928 5930 5931 5930 5930 5930 5930 5931 5931 5932 5932 5932 5934 5934 5935 5936 5938 5939 5940 5940 5941 5943 5945
5895 5895 5897 5899 5902 5903 5905 5906 5909 5911 5912 5913 5914 5916 5916 5918 5920 5922 5923 5924 5926 5928 5928 5927 5927 5927 5928 5928 5929 5931 5931 5931 5931 5932 5933 5933 5932 5934 5936 5937 5938 5937 5938 5939
5890 5892 5894 5896 5898 5900 5902 5904 5905 5906 5907 5909 5909 5912 5914 5915 5917 5919 5919 5921 5924 5926 5924 5922 5923 5926 5925 5926 5927 5927 5929 5929 5930 5931 5930 5932 5932 5933 5933 5934 5935 5936 5935 5935
5884 5886 5889 5891 5894 5896 5897 5900 5901 5902 5901 5905 5905 5907 5910 5912 5915 5916 5918 5919 5920 5920 5920 5920 5919 5921 5921 5920 5924 5925 5926 5926 5927 5928 5928 5929 5929 5930 5931 5931 5932 5932 5933 5931
5879 5882 5883 5885 5889 5890 5891 5895 5896 5895 5896 5899 5899 5900 5904 5906 5907 5909 5911 5913 5915 5914 5916 5914 5916 5919 5921 5920 5921 5920 5921 5923 5922 5921 5923 5924 5924 5924 5924 5924 5924 5925 5925 5927
5873 5876 5877 5880 5883 5885 5887 5888 5890 5890 5889 5891 5893 5894 5896 5899 5901 5903 5905 5906 5907 5909 5910 5905 5908 5912 5913 5913 5915 5917 5916 5916 5916 5916 5919 5919 5918 5918 5919 5919 5920 5920 5920 5919
5866 5869 5871 5873 5876 5879 5882 5882 5883 5883 5883 5884 5886 5888 5891 5894 5896 5899 5899 5901 5902 5903 5902 5900 5902 5905 5906 5907 5909 5909 5910 5910 5909 5910 5912 5912 5912 5911 5912 5913 5913 5913 5914 5913
5860 5863 5866 5868 5870 5873 5876 5877 5877 5877 5877 5877 5881 5884 5885 5887 5890 5892 5894 5894 5895 5896 5898 5897 5895 5898 5900 5900 5900 5901 5902 5904 5905 5905 5905 5906 5906 5906 5905 5906 5905 5905 5906 5906
5855 5858 5860 5862 5864 5867 5869 5870 5871 5872 5873 5873 5876 5877 5879 5882 5883 5885 5888 5890 5890 5892 5892 5892 5893 5895 5896 5895 5895 5895 5897 5898 5898 5899 5898 5899 5899 5899 5898 5898 5897 5896 5896 5896
5851 5853 5854 5857 5860 5862 5864 5866 5867 5868 5868 5868 5871 5872 5874 5876 5877 5878 5881 5884 5885 5886 5885 5886 5885 5886 5888 5887 5886 5885 5885 5885 5886 5886 5888 5888 5888 5888 5888 5888 5888 5887 5885 5885
5848 5849 5851 5853 5854 5855 5857 5859 5860 5862 5863 5863 5865 5865 5868 5869 5869 5870 5870 5871 5873 5873 5874 5874 5875 5874 5874 5874 5873 5873 5873 5872 5872 5873 5874 5875 5874 5875 5875 5875 5875 5875 5875 5875
5844 5845 5847 5847 5847 5849 5851 5851 5852 5854 5855 5855 5858 5858 5859 5862 5862 5862 5863 5863 5863 5863 5863 5863 5861 5859 5858 5857 5857 5856 5856 5856 5855 5856 5857 5859 5858 5857 5857 5858 5860 5861 5862 5862
5838 5839 5841 5841 5841 5842 5844 5844 5844 5845 5846 5847 5848 5849 5850 5851 5852 5853 5853 5852 5852 5851 5850 5848 5847 5846 5844 5843 5841 5840 5838 5837 5836 5836 5836 5836 5838 5841 5841 5841 5841 5842 5844 5846
5833 5833 5834 5834 5834 5834 5836 5838 5838 5838 5838 5838 5839 5841 5841 5841 5842 5842 5841 5839 5838 5837 5834 5833 5832 5830 5829 5827 5824 5822 5821 5820 5819 5817 5818 5818 5817 5818 5820 5821 5821 5821 5822 5824
5827 5828 5827 5826 5826 5827 5828 5829 5830 5830 5830 5829 5829 5830 5831 5832 5831 5830 5828 5827 5825 5823 5822 5821 5819 5817 5814 5811 5809 5806 5803 5801 5799 5799 5796 5794 5793 5794 5795 5796 5799 5800 5800 5802
5821 5821 5819 5820 5820 5819 5820 5820 5821 5821 5822 5821 5821 5821 5820 5821 5819 5818 5818 5817 5815 5813 5811 5808 5806 5803 5799 5797 5794 5789 5786 5783 5779 5776 5775 5773 5771 5771 5771 5772 5774 5775 5775 5781
5815 5814 5815 5814 5813 5813 5813 5812 5811 5810 5812 5811 5810 5809 5809 5809 5808 5807 5806 5804 5801 5799 5798 5797 5793 5788 5784 5780 5776 5771 5766 5764 5761 5757 5754 5750 5746 5746 5747 5747 5748 5750 5750 5755
5808 5808 5808 5807 5807 5806 5805 5804 5802 5803 5805 5802 5801 5800 5798 5798 5797 5795 5792 5789 5786 5783 5781 5778 5775 5770 5764 5761 5756 5751 5746 5741 5736 5733 5729 5726 5723 5717 5716 5718 5720 5720 5724 5729
5802 5802 5801 5801 5800 5800 5797 5796 5795 5795 5793 5792 5792 5791 5789 5788 5786 5784 5780 5776 5773 5770 5767 5764 5758 5753 5745 5740 5736 5731 5724 5717 5711 5707 5704 5701 5700 5694 5688 5687 5691 5694 5694 5699
5797 5795 5794 5795 5793 5791 5790 5789 5788 5786 5785 5784 5782 5780 5778 5776 5774 5771 5767 5764 5761 5757 5753 5749 5743 5736 5728 5722 5716 5711 5703 5695 5689 5685 5684 5681 5677 5671 5666 5663 5663 5664 5668 5674
5790 5790 5790 5789 5787 5785 5783 5782 5781 5779 5777 5774 5772 5770 5768 5766 5763 5759 5756 5751 5747 5743 5738 5735 5730 5723 5717 5707 5701 5695 5684 5676 5672 5669 5666 5665 5658 5654 5647 5641 5638 5638 5642 5648
5784 5783 5783 5782 5781 5780 5778 5775 5773 5770 5767 5765 5762 5759 5756 5753 5750 5747 5741 5737 5734 5731 5728 5724 5719 5714 5705 5695 5689 5682 5671 5664 5659 5654 5652 5651 5643 5636 5629 5621 5618 5618 5622 5625
5780 5779 5778 5777 5776 5774 5771 5768 5764 5761 5758 5755 5751 5747 5743 5740 5737 5733 5730 5727 5724 5722 5719 5715 5710 5705 5693 5686 5680 5671 5662 5655 5649 5644 5643 5643 5634 5624 5615 5605 5602 5601 5604 5608
Wind_Speed
9 11 11 12 15 12 9 8 7 8 9 8 10 12 13 14 17 16 13 11 8 8 9 7 8 12 12 12 13 12 10 11 10 8 7 6 5 5 7 8 7 4 4 2
12 11 9 14 16 14 14 12 10 9 6 9 8 9 11 13 13 13 14 11 9 7 6 5 5 6 11 13 14 13 12 12 12 11 10 8 7 7 7 8 11 10 8 7
16 17 14 9 10 11 9 13 17 11 11 13 11 8 11 11 10 9 10 12 10 7 3 3 6 6 8 11 13 14 14 13 12 12 12 11 13 12 11 10 10 14 12 10
19 22 19 16 13 12 12 10 15 16 14 14 12 16 18 16 14 10 9 10 9 10 9 5 7 8 9 9 12 13 14 14 13 14 15 16 16 16 13 12 11 12 15 16
25 25 22 21 18 15 14 16 13 15 18 17 16 17 22 19 15 13 12 14 12 8 11 13 15 16 13 12 10 10 12 12 13 14 16 18 18 19 17 16 16 15 17 22
26 26 26 23 20 18 18 19 18 18 18 19 20 17 20 18 17 17 18 15 11 8 14 23 14 19 16 13 12 9 10 11 13 15 16 15 15 18 18 19 19 20 19 21
30 29 28 26 23 22 23 21 24 24 23 20 24 22 17 17 17 18 18 15 16 15 14 11 4 16 28 20 5 7 11 13 14 14 14 15 15 16 17 19 22 22 22 24
31 32 30 30 25 26 28 25 26 27 27 25 25 26 22 21 21 18 19 16 19 22 21 15 6 6 14 13 12 11 12 15 17 18 17 18 19 19 20 23 23 24 23 24
32 32 33 31 29 31 29 28 27 29 32 30 30 30 27 26 26 24 21 19 18 25 28 22 29 18 22 18 16 15 17 18 17 19 21 20 24 24 24 25 25 27 28 28
33 33 33 32 32 29 26 25 25 28 32 34 35 35 33 32 30 27 26 23 23 25 28 18 16 16 17 19 20 19 20 19 13 14 19 19 24 24 27 28 29 31 31 33
30 32 28 28 26 22 22 22 25 26 30 34 33 34 36 35 32 32 31 28 27 25 20 18 20 15 22 27 28 23 22 22 20 20 17 18 21 25 30 30 32 38 37 36
28 28 26 25 26 23 22 23 25 26 26 30 31 31 32 31 32 32 32 34 35 33 29 29 29 30 23 26 31 30 31 34 31 29 27 27 28 30 30 32 36 38 39 39
26 26 24 27 28 27 26 23 21 22 24 27 27 29 29 30 32 33 34 34 36 37 37 37 37 34 33 40 40 42 42 40 37 35 35 37 37 37 39 40 41 42 41 36
21 26 28 27 28 30 28 26 26 24 24 25 25 28 27 29 31 33 34 35 37 39 40 42 43 43 43 44 45 46 47 47 48 48 48 49 49 49 50 49 48 48 47 44
15 19 23 26 28 29 26 25 25 25 24 24 24 27 28 29 31 33 35 37 40 42 44 45 46 48 49 52 54 56 57 57 57 58 59 56 53 51 51 54 54 52 51 51
23 20 18 23 28 29 28 28 28 28 29 29 28 28 28 30 32 35 37 39 41 43 45 47 49 52 55 58 61 63 65 67 68 68 66 66 63 62 62 63 63 63 57 56
28 30 31 28 27 28 29 29 30 32 33 35 35 34 34 35 35 37 39 42 45 47 51 53 55 58 60 63 66 67 69 69 70 71 71 71 71 71 68 67 66 68 70 68
34 36 34 30 25 27 27 27 29 32 34 36 38 38 38 37 39 42 45 48 51 54 57 60 62 64 67 70 73 75 77 78 78 78 77 78 77 75 72 70 69 69 69 70
33 29 29 29 30 31 30 32 32 33 35 36 38 40 42 44 48 51 54 57 59 62 65 67 70 73 76 78 79 81 82 82 81 81 79 79 78 77 77 76 74 74 73 70
25 26 26 29 30 29 27 27 28 32 32 35 37 39 41 43 45 47 48 49 52 54 55 56 59 63 65 68 70 72 74 75 76 77 78 80 81 81 80 80 80 78 78 76
26 25 23 22 23 24 23 26 31 32 35 35 37 40 42 42 42 41 43 48 52 53 54 56 59 61 64 65 68 70 71 73 75 75 75 76 78 81 81 80 78 79 81 81
22 22 24 24 23 24 27 30 31 32 34 36 36 36 37 38 41 44 46 47 49 52 54 55 58 61 65 68 70 71 72 75 76 75 76 77 73 77 82 82 79 80 83 79
25 26 24 23 22 22 21 22 23 27 30 31 33 35 38 38 40 43 44 46 50 52 52 52 52 51 55 59 58 57 59 61 64 64 63 61 60 66 67 68 67 69 70 74
23 22 19 17 17 19 21 23 26 28 29 29 30 33 36 38 42 44 46 49 48 46 45 45 45 48 51 56 51 55 58 60 57 55 54 53 44 48 54 58 62 61 60 62
18 17 15 16 18 18 18 23 29 30 31 31 33 38 42 44 43 43 41 39 38 38 34 35 38 37 45 50 50 38 32 36 39 41 38 37 38 48 52 53 53 46 47 51
16 15 16 15 18 19 23 25 27 27 30 34 38 41 42 42 40 36 33 33 33 31 30 29 31 34 41 40 32 26 28 28 28 29 30 29 39 42 39 41 41 37 39 40
Wind_Direction
218 201 198 214 217 219 201 194 175 159 154 167 144 146 143 145 142 137 145 139 133 119 120 138 169 170 172 168 165 173 177 179 179 182 195 203 207 227 228 244 249 218 234 202
232 240 201 194 217 223 215 211 195 189 164 179 180 173 175 170 165 152 150 149 148 148 150 163 173 200 190 187 183 176 177 192 187 191 197 201 202 200 216 222 234 242 242 237
226 237 252 218 227 216 213 226 217 211 164 153 175 189 207 200 185 176 163 157 156 159 190 201 215 210 209 200 197 198 195 193 201 200 205 213 218 218 224 230 233 239 248 254
220 232 238 247 240 245 252 220 203 210 194 194 184 190 198 203 211 208 195 206 188 194 199 217 234 237 219 214 206 204 208 208 207 213 219 218 230 238 229 228 230 226 232 238
226 234 235 237 241 243 259 252 236 214 212 219 219 207 209 212 217 213 220 231 241 254 230 215 223 220 210 200 202 207 213 213 216 214 221 226 234 243 239 238 236 237 237 236
234 236 240 241 241 240 244 248 248 239 229 224 229 218 221 222 219 215 222 222 244 239 236 235 244 215 201 196 198 199 222 222 231 236 241 248 252 251 251 256 253 249 238 242
230 234 236 240 238 239 245 246 244 244 246 239 232 236 227 235 225 230 225 220 214 225 233 255 232 224 218 176 178 199 227 229 238 247 254 259 253 247 257 268 275 275 262 241
230 230 231 236 237 240 247 244 242 247 246 247 252 250 239 245 256 248 235 233 227 224 223 193 156 272 267 257 213 242 248 245 239 235 245 252 248 239 239 244 250 254 264 261
228 233 234 238 240 242 244 246 241 242 247 245 248 250 252 244 246 250 253 253 240 240 241 254 283 271 253 246 238 251 256 248 246 243 242 254 254 248 249 251 252 257 260 260
231 232 232 238 242 244 249 248 241 238 240 240 242 247 249 251 255 256 254 246 232 241 260 268 231 223 252 249 249 254 254 255 256 251 251 249 247 252 256 259 259 261 258 258
229 233 236 239 241 238 239 244 241 238 239 242 243 246 249 252 254 256 249 242 239 240 248 229 233 274 264 246 243 243 254 257 259 256 257 262 264 266 268 270 265 263 257 255
235 233 230 229 232 233 232 232 233 242 242 246 247 248 252 255 259 262 261 253 246 246 244 251 256 259 243 244 264 261 259 265 264 263 269 271 271 272 271 271 274 276 281 263
235 236 235 237 237 237 234 232 240 249 251 254 254 255 257 258 259 259 259 258 261 264 262 261 257 256 247 258 262 263 268 274 276 276 272 269 268 262 260 266 268 269 276 278
236 242 247 254 255 252 246 244 243 246 255 261 260 260 261 262 263 265 266 266 265 264 265 269 269 268 268 268 266 265 267 270 271 270 269 270 271 270 268 267 266 267 266 267
253 243 242 250 255 262 261 255 254 256 256 254 254 255 258 256 258 261 264 265 268 271 273 272 274 275 274 274 274 275 275 274 273 272 270 270 272 268 271 271 269 265 265 264
273 274 266 251 250 254 254 257 257 257 256 256 256 256 257 258 260 263 265 266 268 269 269 269 269 268 268 269 269 269 269 270 272 273 274 275 271 268 266 268 269 268 262 262
270 278 284 273 265 260 257 255 257 262 265 268 267 266 261 262 263 264 267 267 268 268 268 270 270 271 272 272 273 275 276 277 278 278 279 279 278 277 273 269 267 265 264 263
269 275 281 276 269 263 260 259 258 260 262 262 263 265 267 265 263 262 262 263 264 265 267 269 271 273 275 276 277 278 280 281 281 281 280 280 278 276 275 274 272 269 266 263
267 263 259 264 266 268 268 265 264 262 260 260 262 261 258 255 255 255 258 259 260 261 263 265 268 270 272 274 275 276 277 277 278 278 278 278 277 277 275 273 272 271 269 266
263 256 258 261 260 263 267 269 270 268 265 264 262 261 260 259 258 260 264 266 267 268 269 271 271 271 272 274 275 276 276 276 275 276 276 275 274 273 272 272 271 268 267 266
260 267 268 269 273 277 274 273 272 271 269 269 268 267 267 268 271 273 274 277 279 280 281 281 282 283 282 282 282 281 282 282 281 279 278 276 274 274 274 270 267 267 265 263
270 276 283 281 277 271 273 273 272 274 273 272 271 271 271 272 274 277 280 282 284 285 286 286 285 284 283 284 283 282 280 278 277 276 275 273 273 274 273 271 269 267 263 261
280 285 288 285 281 279 275 272 273 274 276 275 275 275 276 280 284 285 285 284 286 287 288 288 286 287 288 289 290 290 289 284 282 282 284 281 280 284 280 276 273 269 262 258
276 280 280 274 271 274 282 290 293 293 289 285 283 284 286 287 287 285 286 290 289 288 289 291 293 293 296 295 297 300 290 285 286 287 283 288 286 291 285 278 274 270 262 254
285 287 287 286 290 294 297 301 300 292 286 281 283 287 292 293 292 295 294 289 288 292 295 296 296 304 304 300 299 304 298 294 293 289 286 287 289 303 297 289 276 269 258 252
283 292 297 299 299 299 300 301 301 298 292 291 293 293 293 296 299 297 290 285 288 291 297 304 312 323 310 311 312 317 321 312 305 294 286 298 304 307 304 295 281 267 254 246